Regional Weather Roundup
Issued by NWS

Home | Current Version | Previous Version | Text Only | Print | Product List | Glossary Off
Versions: 1 2 3 4 5 6 7 8 9 10 11 12 13 14 15 16 17 18 19 20 21 22 23 24 25 26 27 28 29 30 31 32 33 34 35 36 37 38 39 40 41 42 43 44 45 46 47 48 49 50

000
ASUS45 KSLC 282110
RWRUT

UTAH REGIONAL WEATHER ROUNDUP
NATIONAL WEATHER SERVICE SALT LAKE CITY UT
200 PM MST FRI NOV 28 2014

UTZ001>011-023>025-282200-

NORTHERN UTAH

CITY           SKY/WX    TMP DP  RH WIND       PRES   REMARKS
BRIGHAM CITY   CLOUDY    60  18  19 SW9       29.89F
HILL AFB       PTSUNNY   61  19  19 S15       29.90F
LOGAN          SUNNY     57  29  34 NE8       29.88F
OGDEN          PTSUNNY   62  19  19 SW8       29.89F
PROVO AIRPORT  PTSUNNY   63  25  23 CALM      29.95F
SALT LAKE CITY PTSUNNY   65  11  12 S22G35    29.88F
VERNAL         PTSUNNY   48  22  35 CALM      30.02F
WENDOVER       SUNNY     52  21  30 E8        29.88F
HEBER CITY     PTSUNNY   61  10  13 SW18      29.95F
WEST JORDAN    SUNNY     63  28  27 S20G25    29.92F

$$

UTZ012>022-026-027-282200-

SOUTHERN/CENTRAL UTAH

CITY           SKY/WX    TMP DP  RH WIND       PRES   REMARKS
BLANDING       SUNNY     53  20  27 CALM      30.21F
BRYCE CANYON   SUNNY     58   7  13 SW18G26   30.13F
CEDAR CITY     SUNNY     64  10  12 SW18G24   30.03F
DELTA          MOSUNNY   65  13  13 S16       29.95F
MILFORD        SUNNY     65  12  12 SW23      29.99F
MOAB/CYNLANDS  SUNNY     52  23  32 VRB3      30.06F
PRICE          MOSUNNY   49  22  34 E3        30.08F
ST GEORGE      MOCLDY    57  19  23 CALM      30.04F

$$

REGIONAL REPORTS     COLORADO/ARIZONA

CITY           SKY/WX    TMP DP  RH WIND       PRES   REMARKS
CRAIG, CO      PTSUNNY   53  26  35 NE7       30.00F
GRAND JUNCTION MOSUNNY   49  26  41 W3        30.07F
RIFLE          PTSUNNY   48  23  37 CALM      30.06F
MONTROSE       MOSUNNY   57  20  23 CALM      30.07F
CORTEZ         SUNNY     57  22  25 SW6       30.13F
PAGE, AZ       SUNNY     55  19  24 VRB6      30.08F
GRAND CANYON   SUNNY     65   5   9 SW17G23   30.16F
KINGMAN        SUNNY     74  15  10 SW16      30.03F
FLAGSTAFF      SUNNY     64  11  12 SW15G22   30.19F

$$

REGIONAL REPORTS    NEVADA/IDAHO/WYOMING

CITY           SKY/WX    TMP DP  RH WIND       PRES   REMARKS
LAS VEGAS, NV  MOSUNNY   64  20  18 CALM      29.95F
ELY            SUNNY     61   8  12 S7        30.00F
ELKO           SUNNY     64  16  15 S16G29    29.88F
POCATELLO, ID  SUNNY     59  19  21 S16       29.82F
BURLEY         CLOUDY    57  21  24 S15       29.79F
EVANSTON, WY   MOSUNNY   51  19  28 SW20      29.96F
ROCK SPRINGS   PTSUNNY   54  14  20 SW16      29.94F

$$



USA.gov is the U.S. government's official web portal to all federal, state and local government web resources and services.